ATLAS 5 CENTAUR DEB, 43985

Orbit data source: Space-Track

ATLAS 5 CENTAUR DEB, 43985 is space debris in HEO originally from a launch on Wed, 17 Sep 2014 UTC launched from the Air Force Eastern Test Range (AFETR). Debris objects in space refer to the collection of defunct objects orbiting the Earth. Examples of debris include non-operational satellites, rocket bodies, and fragments generated from explosions, collisions, or faulty payload assembly.

Loading next visibility...
Identifier
43985, 2014-055AQ
Orbit
HEO
Country
Flag of USUS
Related business
Flag of USUnited Launch Alliance/Lockheed Martin (US)
Manufacturer
Unknown
Mission
Spacecraft
Bus & Motor
Unknown
Mass
Unknown
Launch date (UTC)
2014-09-17 (12 years ago)
Launch vehicle
Unknown
Launch site
Air Force Eastern Test Range (AFETR)
Object type
Payload
Rocket body
Debris
Shape & HBR
Unknown shape, 1.1 m
Radar Cross Section
Small (<0.1 m²)

Expand to show TLE details & history
Last TLE update: 1 day ago

TLE from 1 day ago
0 ATLAS 5 CENTAUR DEB
1 43985U 14055AQ  26144.34260945 -.00000027  00000-0  00000-0 0  9994
2 43985  19.0052 175.8728 4738654 103.5308 311.8581  1.76687330 11609
Epoch: 2026-05-24T08:13Z
TLE epoch observation values (Epoch: 2026-05-24T08:13:21.456Z)
Latitude
Longitude
170.67091°
Altitude
18,783.753 km
Speed
4.23 km/s
True Right ascension
11h 43m 49s
True Declination
0° 00' 00"
Sunlit
Object was in daylight at epoch
Visualization orbit readout
Latitude
Unknown
Longitude
Unknown
Altitude
Unknown
Speed
Unknown
Apparent Right ascension
Unknown
Apparent Declination
Unknown
Sunlit
N/A
Visualization observer readout
Local Sidereal Time
18:36:45
Azimuth
Unknown
Elevation
Unknown
Doppler factor
Unknown
Orbital elements
Apogee altitude
36,222.673 km
Perigee altitude
8,829.33 km
Semi-major axis
28,904.139 km
Eccentricity
0.47387
Inclination
19.0052°
RAAN
175.8728°
Arg. of periapsis
103.5308°
True anomaly
256.54045°
Mean anomaly
311.8581°
Eccentric anomaly
285.72357°
Mean motion
0.44168 °/min
Orbital period
815.08 mins
BSTAR
0
Loading maneuver chart data...
Computing Atmospheric mass density...

Documentation

Showing up to 5 results
|